Regional Weather Roundup
Issued by NWS

Home | Current Version | Previous Version | Text Only | Print | Product List | Glossary On
Versions: 1 2 3 4 5 6 7 8 9 10 11 12 13 14 15 16 17 18 19 20 21 22 23 24 25 26 27 28 29 30 31 32 33 34 35 36 37 38 39 40 41 42 43 44 45 46 47 48 49 50
000
ASUS43 KLSX 300759
RWRMO

WEATHER SUMMARY FOR MISSOURI
NATIONAL WEATHER SERVICE SPRINGFIELD MO
300 AM CDT MON MAR 30 2015

NOTE: "FAIR" INDICATES FEW OR NO CLOUDS BELOW 12,000 FEET WITH NO
       SIGNIFICANT WEATHER AND/OR OBSTRUCTIONS TO VISIBILITY.
       CURRENT SKY AND/OR WEATHER CONDITIONS ARE NOT AVAILABLE FOR
       CHILLICOTHE AND FARMINGTON.

MOZ001>031-035>038-043-044-053-054-300900-
...NORTHERN AND WESTERN MISSOURI...

CITY           SKY/WX    TMP DP  RH WIND       PRES   REMARKS
KANSAS CTY INT CLEAR     44  33  65 SW8       30.17S
KANSAS C DTWN  CLEAR     43  36  76 CALM      30.18R
LEE`S SUMMIT   CLEAR     43  35  73 SW6       30.18S
CHILLICOTHE      N/A     37  32  82 CALM      30.16R

$$
MOZ066>068-077>081-088>096-101>105-300900-
...SOUTHWEST MISSOURI...

CITY           SKY/WX    TMP DP  RH WIND       PRES   REMARKS
SPRINGFIELD    CLEAR     37  35  92 CALM      30.16F
JOPLIN         CLEAR     44  38  79 E3        30.18F

$$
MOZ032>034-039>042-045>050-055>058-069>072-300900-
...CENTRAL MISSOURI...

CITY           SKY/WX    TMP DP  RH WIND       PRES   REMARKS
COLUMBIA       CLEAR     44  36  73 W8        30.14S
JEFFERSON CITY CLEAR     38  35  89 W3        30.15S
ROLLA          CLEAR     42  35  76 W6        30.12F
SEDALIA        CLEAR     44  34  67 W6        30.16S
OSAGE BEACH    CLEAR     39  34  81 CALM      30.16R

$$
MOZ051-052-059>065-300900-
...EAST CENTRAL MISSOURI...

CITY           SKY/WX    TMP DP  RH WIND       PRES   REMARKS
ST LOUIS INTL  CLEAR     45  37  73 W8        30.12S
SPIRIT OF STL  CLEAR     40  36  86 CALM      30.12S
ST CHARLES     CLEAR     42  38  85 W6        30.11S

$$
MOZ072>076-082>087-097>100-106>115-300900-
...SOUTH CENTRAL AND SOUTHEAST MISSOURI...

CITY           SKY/WX    TMP DP  RH WIND       PRES   REMARKS
CAPE GIRARDEAU CLEAR     49  42  77 NW10      30.09S
FARMINGTON     CLEAR     45  37  76 NW5       30.15F
POPLAR BLUFF   CLEAR     49  41  74 NW8       30.09S
WEST PLAINS    CLEAR     48  39  71 N5        30.15R

$$


USA.gov is the U.S. government's official web portal to all federal, state and local government web resources and services.